EHI
0 0 0 0 0 0 0 0 0 0 0 0 0 0 0 0 1 2 1 0 0 0 0 0 0 0 0 0 0 0 0 0 0 0 1 2 3 2 1 0 1 2 2 3
0 0 0 0 0 0 0 0 0 0 0 0 0 0 0 0 1 2 2 1 0 0 1 1 0 0 0 0 0 0 0 0 0 0 1 2 2 2 1 0 1 2 3 3
0 0 0 0 0 0 0 0 0 0 0 0 0 0 0 0 0 1 1 1 0 0 1 1 0 0 0 0 0 0 0 0 0 0 0 1 1 1 1 1 1 1 2 2
0 0 0 0 0 0 0 0 0 0 0 0 0 0 0 0 0 0 0 0 0 0 1 1 0 0 0 0 0 0 0 0 0 0 0 0 0 0 0 0 0 0 1 1
0 0 0 0 0 0 0 0 0 0 0 0 0 0 0 0 0 0 0 0 0 0 0 0 0 0 0 0 0 0 0 0 0 0 0 0 0 0 0 0 0 0 0 0
0 0 0 0 0 0 0 0 0 0 0 0 0 0 0 0 0 0 0 0 0 0 0 0 0 0 0 0 0 0 0 0 0 0 0 0 0 0 0 0 0 0 0 0
0 0 0 0 0 0 0 0 0 0 0 0 0 0 0 0 0 0 0 0 0 0 0 0 0 0 0 0 0 0 0 0 0 0 0 0 0 0 0 0 0 0 0 0
0 0 0 0 0 0 0 0 0 0 0 0 0 0 0 0 0 0 0 0 0 0 0 0 0 0 0 0 0 0 0 0 0 0 0 0 0 0 0 0 0 0 0 0
0 0 0 0 0 0 0 0 0 0 0 0 0 0 0 0 0 0 0 0 0 0 0 0 0 0 0 0 0 0 0 0 0 0 0 0 0 0 0 0 0 0 0 0
0 0 0 0 0 0 0 0 0 0 0 0 0 0 0 0 0 0 0 0 0 0 0 0 0 0 0 0 0 0 0 0 0 0 0 0 0 0 0 0 0 0 0 0
0 0 0 0 0 0 0 0 0 0 0 0 0 0 0 0 0 0 0 0 0 0 0 0 0 0 0 0 0 0 0 0 0 0 0 0 0 0 0 0 0 0 0 0
0 0 0 0 0 0 0 0 0 0 0 0 0 0 0 0 0 0 0 0 0 0 0 0 0 0 0 0 0 0 0 0 0 0 0 0 0 0 0 0 0 0 0 0
0 0 0 0 0 0 0 0 0 0 0 0 0 0 0 0 0 0 0 0 0 0 0 0 0 0 0 0 0 0 0 0 0 0 0 0 0 0 0 0 0 0 0 0
0 0 0 0 0 0 0 0 0 0 0 0 0 0 0 0 0 0 0 0 0 0 0 0 0 0 0 0 0 0 0 0 0 0 0 0 0 0 0 0 0 0 0 0
0 0 0 0 0 0 0 0 0 0 0 0 0 0 0 0 0 0 0 0 0 0 0 0 0 0 0 0 0 0 0 0 0 0 0 0 0 0 0 0 0 0 0 0
0 0 0 0 0 0 0 0 0 0 0 0 0 0 0 0 0 0 0 0 0 0 0 0 0 0 0 0 0 0 0 0 0 0 0 0 0 0 0 0 0 0 0 0
0 0 0 0 0 0 0 0 0 0 0 0 0 0 0 0 0 0 0 0 0 0 0 0 0 0 0 0 0 0 0 0 0 0 0 0 0 0 0 0 0 0 0 0
0 0 0 0 0 0 0 0 0 0 0 0 0 0 0 0 0 0 0 0 0 0 0 0 0 0 0 0 0 0 0 0 0 0 0 0 0 0 0 0 0 0 0 0
0 0 0 0 0 0 0 0 0 0 0 0 0 0 0 0 0 0 0 0 0 0 0 0 0 0 0 0 0 0 0 0 0 0 0 0 0 0 0 0 0 0 0 0
0 0 0 0 0 0 0 0 0 0 0 0 0 0 0 0 0 0 0 0 0 0 0 0 0 0 0 0 0 0 0 0 0 0 0 0 0 0 0 0 0 0 0 0
0 0 0 0 0 0 0 0 0 0 0 0 0 0 0 0 0 0 0 0 0 0 0 0 0 0 0 0 0 0 0 0 0 0 0 0 0 0 0 0 0 0 0 0
0 0 0 0 0 0 0 0 0 0 0 0 0 0 0 0 0 0 0 0 0 0 0 0 0 0 0 0 0 0 0 0 0 0 0 0 0 0 0 0 0 0 0 0
0 0 0 0 0 0 0 0 0 0 0 0 0 0 0 0 0 0 0 0 0 0 0 0 0 0 0 0 0 0 0 0 0 0 0 0 0 0 0 0 0 0 0 0
0 0 0 0 0 0 0 0 0 0 0 0 0 0 0 0 0 0 0 0 0 0 0 0 0 0 0 0 0 0 0 0 0 0 0 0 0 0 0 0 0 0 0 0
0 0 0 0 0 0 0 0 0 0 0 0 0 0 0 0 0 0 0 0 0 0 0 0 0 0 0 0 0 0 0 0 0 0 0 0 0 0 0 0 0 0 0 0
0 0 0 0 0 0 0 0 0 0 0 0 0 0 0 0 0 0 0 0 0 0 0 0 0 0 0 0 0 0 0 0 0 0 0 0 0 0 0 0 0 0 0 0
0 0 0 0 0 0 0 0 0 0 0 0 0 0 0 0 0 0 0 0 0 0 0 0 0 0 0 0 0 0 0 0 0 0 0 0 0 0 0 0 0 0 0 0
Wind_Speed
8 8 6 8 9 6 5 6 6 8 7 8 8 7 5 4 2 2 3 1 1 1 1 0 1 1 1 0 1 1 1 1 1 0 1 1 1 1 1 1 1 1 1 1
6 6 7 8 7 6 5 5 5 6 7 6 6 4 4 3 2 2 3 2 2 1 1 1 1 1 0 0 0 1 1 0 0 0 0 0 1 1 1 1 1 0 0 0
6 7 5 5 4 4 3 2 2 4 6 7 7 6 5 4 2 2 2 2 2 2 2 2 2 2 1 1 0 1 1 0 0 0 0 0 1 1 1 0 0 1 1 0
3 4 4 6 2 2 2 2 2 3 5 7 7 6 5 2 2 2 2 2 2 2 2 2 1 1 1 1 1 1 0 0 1 1 1 0 0 0 0 0 0 0 1 1
0 3 7 5 3 3 3 4 3 5 7 7 6 5 4 2 2 3 3 3 3 2 2 1 1 1 1 0 0 1 1 1 2 2 2 1 0 0 0 0 1 1 1 1
1 3 5 5 6 6 2 4 5 6 7 7 6 6 6 4 4 4 3 2 1 1 0 1 1 1 1 2 1 2 3 3 2 2 2 2 1 0 0 0 1 1 2 1
3 5 7 4 7 5 3 6 8 7 6 5 5 6 7 5 4 3 2 2 1 1 1 2 2 1 2 3 4 4 3 2 2 2 2 2 1 1 0 0 1 1 2 2
2 3 6 4 5 2 6 8 8 7 6 6 7 7 5 4 4 3 2 2 2 1 2 2 1 2 2 4 4 2 2 1 1 1 1 1 1 1 0 1 1 1 2 3
5 7 7 5 5 7 6 8 8 7 7 6 7 7 6 5 4 4 3 3 2 2 2 2 2 2 3 5 2 1 2 1 1 1 1 1 1 1 0 0 0 1 1 2
6 9 9 9 8 8 8 8 9 8 7 6 7 7 6 5 4 4 3 3 2 2 2 2 3 3 4 3 2 2 2 1 1 1 0 0 0 1 1 1 1 1 1 2
9 11 10 7 7 9 10 9 8 8 7 6 6 6 5 4 5 4 3 3 3 3 3 4 3 3 3 1 2 3 2 2 1 1 1 0 1 1 2 3 3 3 3 3
10 9 8 13 11 10 9 9 9 8 8 7 5 5 5 4 4 3 3 3 3 3 3 3 3 3 2 2 3 3 2 2 1 1 1 1 0 2 2 2 3 5 6 6
12 12 11 13 12 9 9 9 8 7 6 7 6 4 4 4 3 3 3 3 4 4 4 4 3 3 3 2 3 3 3 2 1 1 1 1 1 1 2 4 5 4 3 4
11 9 10 10 10 9 8 8 7 6 5 4 4 3 2 3 2 3 4 4 3 3 3 3 4 4 3 2 3 3 3 3 2 2 2 1 1 1 1 1 3 4 4 5
11 9 10 11 10 8 7 5 5 5 4 4 3 2 2 3 4 4 4 3 2 2 3 3 3 3 2 3 3 3 3 2 2 2 2 2 1 1 1 2 2 3 3 4
10 8 7 8 8 7 6 5 5 5 4 4 3 3 3 3 4 3 3 2 2 3 3 3 4 3 2 3 3 2 2 3 2 2 1 1 1 1 1 1 2 2 3 3
7 8 7 7 7 8 7 6 6 6 5 5 5 4 3 2 2 3 3 3 3 3 3 3 3 2 3 3 3 2 2 2 2 1 1 1 1 1 2 2 2 2 3 3
8 9 8 8 8 7 7 6 5 5 5 6 4 3 3 3 4 4 3 1 1 1 2 3 2 2 2 3 3 2 2 2 2 2 2 1 1 2 2 2 2 2 3 3
8 9 8 8 7 6 6 6 6 5 5 4 4 4 4 4 4 3 2 2 2 2 4 3 2 2 2 3 3 2 2 2 1 1 1 1 1 1 1 2 2 2 2 3
8 8 7 7 6 5 5 5 5 4 4 4 3 3 3 3 3 3 3 3 3 4 3 2 2 2 2 2 3 2 2 2 2 2 1 1 1 1 1 2 2 2 2 2
9 8 8 7 7 6 5 5 4 4 4 3 4 4 4 4 3 4 3 3 3 2 2 2 2 2 1 2 2 2 2 2 2 2 2 1 1 1 1 1 2 2 2 2
9 8 8 7 6 6 5 4 4 4 3 3 4 3 3 3 3 3 3 4 3 3 2 1 1 2 2 2 2 2 2 2 2 2 2 2 1 2 2 2 2 2 2 2
9 8 8 7 6 6 5 4 4 4 4 5 4 4 4 4 3 3 3 3 2 3 2 2 2 3 3 2 2 3 3 3 2 2 2 2 2 2 2 2 2 2 2 2
9 8 8 7 5 4 4 4 4 3 4 4 4 5 4 3 2 3 3 3 4 3 2 2 3 3 3 2 2 2 3 3 2 2 2 2 2 2 2 2 1 2 2 2
9 8 7 5 4 4 4 3 2 2 2 2 3 3 3 3 3 3 3 3 4 4 2 2 4 4 2 2 2 3 3 3 3 2 2 2 2 1 1 1 1 1 1 2
8 7 6 6 5 4 3 2 2 2 2 2 2 2 2 2 2 2 2 3 4 4 3 2 2 2 2 2 3 3 3 3 3 2 2 2 1 1 1 1 1 1 1 2
7 6 4 4 3 2 2 3 3 3 3 3 3 2 3 2 2 3 3 3 3 3 2 2 2 2 2 2 2 2 2 2 2 2 2 1 1 1 1 1 1 1 1 1
Wind_Direction
254 268 273 274 285 285 252 234 238 271 277 292 300 300 302 298 295 323 326 310 245 226 210 26 5 3 12 347 58 74 89 114 128 140 137 119 87 61 53 58 78 94 80 22
284 277 280 278 288 288 278 271 266 286 287 301 313 326 329 320 304 308 300 297 283 259 216 209 214 232 298 332 66 113 117 113 69 93 108 119 120 79 63 58 48 75 98 346
281 300 311 281 268 272 273 279 265 277 289 318 329 323 309 298 297 291 301 305 259 243 241 245 225 203 208 235 123 130 144 140 270 272 299 265 105 90 82 63 49 339 325 311
292 345 273 254 269 282 259 300 313 304 318 326 316 308 293 272 260 289 311 304 269 244 249 264 256 220 201 164 160 147 179 234 223 213 237 284 84 115 294 8 27 312 309 331
189 282 279 291 340 337 292 293 1 340 333 337 335 331 310 307 293 271 276 269 255 233 231 231 256 224 157 178 194 186 224 234 223 202 196 184 198 305 333 16 348 320 295 311
197 262 265 283 322 319 297 287 346 341 327 326 340 326 297 309 314 307 305 281 257 255 240 239 260 205 179 209 219 229 235 237 225 205 194 198 206 209 229 179 274 315 318 307
237 253 268 299 328 3 20 293 314 313 306 302 279 265 280 290 295 282 277 270 246 223 230 244 240 191 220 228 233 233 228 218 205 204 203 200 178 180 186 32 352 343 333 322
237 251 265 325 358 348 269 289 300 297 291 286 288 289 291 282 275 274 273 256 217 220 260 269 231 205 246 253 248 230 200 183 179 209 213 169 163 197 180 135 15 342 347 334
217 238 263 293 280 280 279 288 292 291 290 286 289 289 288 280 273 275 254 234 211 211 258 284 250 223 243 266 251 190 166 169 176 196 190 165 171 189 193 149 170 288 291 301
274 274 284 290 291 294 292 289 291 288 285 280 280 282 279 278 272 269 253 232 211 195 234 265 262 250 252 261 206 165 163 176 163 166 186 96 156 187 203 224 233 261 267 278
269 282 297 289 293 299 305 305 302 301 292 280 276 276 266 270 263 256 245 237 206 208 228 252 261 264 261 218 165 164 170 174 160 170 157 79 348 258 234 244 218 221 246 244
260 270 277 286 292 296 297 295 294 299 302 294 276 265 263 264 255 240 239 239 220 222 231 249 253 257 243 201 167 161 160 165 161 164 156 156 300 338 327 269 279 253 239 236
258 274 272 279 284 284 284 285 286 284 282 287 286 266 249 259 249 231 234 234 228 226 230 237 242 243 233 202 175 168 173 180 172 175 185 205 221 250 324 341 347 334 301 270
268 276 280 281 282 284 285 283 284 286 284 270 266 258 249 255 245 230 233 236 233 230 238 234 227 233 227 189 177 178 183 190 183 194 205 217 231 241 239 272 315 325 331 323
277 266 265 278 284 286 289 286 287 288 289 294 281 248 238 241 242 242 243 237 232 236 240 220 215 236 218 179 177 185 191 196 193 204 215 223 238 252 258 260 273 291 310 325
291 289 284 284 284 290 295 280 267 267 268 267 270 260 248 245 247 247 238 212 211 238 233 216 225 230 195 179 181 193 206 210 201 203 220 238 253 263 283 284 284 286 294 302
291 293 295 291 287 291 285 268 253 254 257 251 251 251 247 253 259 252 240 217 208 226 234 229 236 230 191 184 184 192 201 207 204 199 215 228 240 256 263 273 284 291 293 289
269 264 264 263 267 274 279 276 265 259 252 249 245 239 232 227 235 239 228 211 195 268 265 251 239 214 198 190 183 185 183 198 209 213 218 223 240 248 256 268 280 287 298 303
294 284 275 272 270 262 266 269 263 256 254 242 227 229 232 229 224 217 196 173 195 242 262 258 236 205 203 200 184 176 178 196 212 207 201 221 252 268 273 280 288 291 300 312
303 299 288 288 286 275 269 269 263 260 251 225 218 225 233 233 215 194 180 202 222 229 235 228 210 209 208 201 183 176 182 196 197 199 205 213 232 268 285 291 293 296 304 313
303 302 295 291 286 280 270 260 252 254 246 215 203 214 225 226 200 178 178 229 256 233 216 213 205 209 205 195 178 177 187 202 198 198 207 223 243 263 275 282 287 289 299 305
302 298 293 288 281 279 276 262 253 245 226 219 219 219 208 202 194 191 204 220 233 215 206 210 210 203 200 193 186 190 200 208 198 195 204 221 232 252 270 278 280 283 289 295
301 296 292 284 274 274 276 265 250 230 215 214 214 213 211 209 197 195 228 230 203 198 199 208 205 200 203 197 194 198 207 206 201 205 214 220 226 235 245 260 270 277 287 296
301 297 295 288 281 273 265 265 254 234 220 219 219 213 204 201 220 221 211 200 197 195 208 221 216 212 199 197 195 199 205 201 200 207 213 220 228 234 244 256 274 284 288 298
295 293 292 286 270 258 249 248 239 226 220 230 231 222 209 195 200 208 187 184 187 186 201 210 206 204 196 195 199 205 208 206 200 199 207 214 221 230 245 247 253 275 297 308
289 287 281 271 261 250 232 214 223 227 217 224 241 226 198 187 187 182 179 184 182 189 197 205 199 196 195 197 201 205 206 199 194 199 202 201 202 210 224 238 258 277 293 303
291 290 288 291 284 247 218 212 217 224 217 209 217 215 197 190 189 190 184 179 180 191 197 199 200 199 195 193 199 206 201 195 192 189 186 186 196 209 219 231 258 277 293 311